SL-8 DEB, 43335

Orbit data source: Space-Track

SL-8 DEB, 43335 is space debris in LEO originally from a launch on Tue, 04 Apr 1989 UTC launched from the Plesetsk Missile And Space Complex (PKMTR). Debris objects in space refer to the collection of defunct objects orbiting the Earth. Examples of debris include non-operational satellites, rocket bodies, and fragments generated from explosions, collisions, or faulty payload assembly.

Loading next visibility...
Identifier
43335, 1989-028C
Orbit
LEO
Country
Flag of CISCIS
Related business
Manufacturer
Polyot
Mission
Spacecraft
Bus & Motor
Unknown
Mass
Unknown
Launch date (UTC)
1989-04-04 (37 years ago)
Launch vehicle
Unknown
Launch site
Plesetsk Missile And Space Complex (PKMTR)
Object type
Payload
Rocket body
Debris
Shape & HBR
Unknown shape, 0.1 m
Radar Cross Section
Small (<0.1 m²)

Expand to show TLE details & history
Last TLE update: 17 hours ago

TLE from 17 hours ago
0 SL-8 DEB
1 43335U 89028C   26094.93769768  .00001700  00000-0  14588-2 0  9997
2 43335  82.9413 176.8786 0043255  67.5280 293.0454 13.85835144623030
Epoch: 2026-04-04T22:30Z
TLE epoch observation values (Epoch: 2026-04-04T22:30:17.079Z)
Latitude
-0°
Longitude
6.05713°
Altitude
933.894 km
Speed
7.391 km/s
True Right ascension
11h 47m 30s
True Declination
0° 00' 00"
Sunlit
Object was in full shadow at epoch
Visualization orbit readout
Latitude
Unknown
Longitude
Unknown
Altitude
Unknown
Speed
Unknown
Apparent Right ascension
Unknown
Apparent Declination
Unknown
Sunlit
N/A
Visualization observer readout
Local Sidereal Time
21:25:07
Azimuth
Unknown
Elevation
Unknown
Doppler factor
Unknown
Orbital elements
Apogee altitude
972.053 km
Perigee altitude
908.74 km
Semi-major axis
7,318.534 km
Eccentricity
0.00433
Inclination
82.9413°
RAAN
176.8786°
Arg. of periapsis
67.528°
True anomaly
292.58833°
Mean anomaly
293.0454°
Eccentric anomaly
292.81696°
Mean motion
3.46663 °/min
Orbital period
103.85 mins
BSTAR
0.0014588
Loading maneuver chart data...
Computing Atmospheric mass density...
Loading historical data...
Loading historical data...
Loading historical data...
Loading historical data...
Loading historical data...
Loading historical data...
Loading historical data...
Other satellites on launch #28 in the year 1989 (1989-04-04 UTC)

Documentation

Showing up to 5 results
|